SWR39 KSFO-LSZH

Flight info

Callsign SWR39
Flight time N/A
Altitude 33000
Route SNTNA2 ORRCA Q120 GALLI DCT DBS DCT DIK DCT GFK DCT YIX DCT PELEE/N0493F350 DCT SOCAN DCT PUVOK DCT CUDDY/M084F350 DCT 58N050W 58N040W 57N030W 56N020W DCT RESNO/N0486F350 DCT NETKI DCT LIPGO/N0481F370 DCT NUCHU DCT BOGNA UL612 VEULE DCT TEPRI DCT POGZI DCT GELTA DCT MANAG DCT PEVIT DCT BLM
Aircraft B77W/H-SDE1E2E3FGHIJ2J3J4J5M1RWXY/LB1D1

Departure

Time 2026-05-08 05:17
Airport San Francisco International Airport (KSFO)

Arrival

Time N/A
Airport Zürich Airport (LSZH)
Time Latitude Longitude Altitude Speed Heading
2026-05-08 04:31 37.61900 -122.39399 23 ft 0 kts 155°
2026-05-08 05:02 37.61922 -122.39413 11 ft 4 kts 145°
2026-05-08 05:03 37.61942 -122.39435 24 ft 4 kts 131°
2026-05-08 05:03 37.61958 -122.39462 24 ft 4 kts 114°
2026-05-08 05:03 37.61965 -122.39494 28 ft 4 kts 88°
2026-05-08 05:03 37.61964 -122.39510 27 ft 0 kts 73°
2026-05-08 05:06 37.61967 -122.39497 27 ft 4 kts 73°
2026-05-08 05:06 37.61976 -122.39458 24 ft 2 kts 72°
2026-05-08 05:06 37.61982 -122.39436 26 ft 4 kts 72°
2026-05-08 05:06 37.61995 -122.39385 24 ft 7 kts 70°
2026-05-08 05:07 37.62028 -122.39340 24 ft 7 kts 31°
2026-05-08 05:07 37.62074 -122.39310 21 ft 8 kts 27°
2026-05-08 05:07 37.62138 -122.39268 20 ft 11 kts 28°
2026-05-08 05:07 37.62208 -122.39220 21 ft 12 kts 27°
2026-05-08 05:08 37.62268 -122.39176 23 ft 9 kts 39°
2026-05-08 05:08 37.62304 -122.39113 22 ft 9 kts 65°
2026-05-08 05:08 37.62325 -122.39036 19 ft 9 kts 72°
2026-05-08 05:08 37.62342 -122.38957 20 ft 9 kts 84°
2026-05-08 05:09 37.62322 -122.38879 23 ft 9 kts 116°
2026-05-08 05:09 37.62293 -122.38805 20 ft 9 kts 117°
2026-05-08 05:09 37.62263 -122.38733 21 ft 9 kts 118°
2026-05-08 05:09 37.62232 -122.38660 26 ft 9 kts 118°
2026-05-08 05:10 37.62198 -122.38579 29 ft 12 kts 118°
2026-05-08 05:10 37.62096 -122.38335 26 ft 18 kts 118°
2026-05-08 05:10 37.62039 -122.38200 28 ft 18 kts 117°
2026-05-08 05:11 37.61984 -122.38069 32 ft 13 kts 118°
2026-05-08 05:11 37.61936 -122.37976 26 ft 13 kts 130°
2026-05-08 05:11 37.61866 -122.37907 30 ft 13 kts 150°
2026-05-08 05:11 37.61818 -122.37832 25 ft 8 kts 112°
2026-05-08 05:12 37.61794 -122.37753 26 ft 14 kts 111°
2026-05-08 05:12 37.61767 -122.37665 27 ft 17 kts 111°
2026-05-08 05:12 37.61724 -122.37529 30 ft 17 kts 114°
2026-05-08 05:12 37.61672 -122.37399 32 ft 17 kts 118°
2026-05-08 05:13 37.61618 -122.37270 28 ft 17 kts 118°
2026-05-08 05:13 37.61563 -122.37140 27 ft 17 kts 117°
2026-05-08 05:13 37.61510 -122.37011 27 ft 17 kts 117°
2026-05-08 05:13 37.61447 -122.36889 30 ft 17 kts 134°
2026-05-08 05:14 37.61369 -122.36782 27 ft 17 kts 126°
2026-05-08 05:14 37.61313 -122.36654 24 ft 17 kts 117°
2026-05-08 05:14 37.61259 -122.36524 22 ft 17 kts 118°
2026-05-08 05:14 37.61204 -122.36395 26 ft 17 kts 117°
2026-05-08 05:15 37.61151 -122.36266 24 ft 17 kts 117°
2026-05-08 05:15 37.61097 -122.36139 26 ft 15 kts 118°
2026-05-08 05:15 37.61057 -122.36032 27 ft 11 kts 107°
2026-05-08 05:15 37.61066 -122.35944 24 ft 10 kts 57°
2026-05-08 05:16 37.61118 -122.35891 25 ft 9 kts 27°
2026-05-08 05:16 37.61168 -122.35869 26 ft 7 kts 351°
2026-05-08 05:16 37.61200 -122.35919 24 ft 8 kts 298°
2026-05-08 05:16 37.61277 -122.36098 21 ft 53 kts 298°
2026-05-08 05:17 37.61562 -122.36771 28 ft 119 kts 297°
2026-05-08 05:17 37.62041 -122.37908 33 ft 171 kts 298°
2026-05-08 05:17 37.62624 -122.39248 504 ft 175 kts 294°
2026-05-08 05:17 37.63195 -122.40668 945 ft 186 kts 297°
2026-05-08 05:18 37.63795 -122.42100 1534 ft 188 kts 298°
2026-05-08 05:18 37.64428 -122.43576 1841 ft 201 kts 298°
2026-05-08 05:18 37.65130 -122.45188 2021 ft 218 kts 298°
2026-05-08 05:18 37.65891 -122.46935 2283 ft 232 kts 298°
2026-05-08 05:19 37.66691 -122.48770 2641 ft 244 kts 298°
2026-05-08 05:19 37.67543 -122.50665 3149 ft 250 kts 305°
2026-05-08 05:19 37.68866 -122.52087 3592 ft 257 kts 337°
2026-05-08 05:19 37.70636 -122.52509 4118 ft 263 kts 356°
2026-05-08 05:20 37.72490 -122.52555 4642 ft 268 kts 356°
2026-05-08 05:20 37.74370 -122.52623 5249 ft 272 kts 356°
2026-05-08 05:20 37.76271 -122.52694 5861 ft 275 kts 356°
2026-05-08 05:20 37.78189 -122.52744 6417 ft 276 kts
2026-05-08 05:21 37.80048 -122.52078 6799 ft 285 kts 33°
2026-05-08 05:21 37.81388 -122.50252 7301 ft 287 kts 63°
2026-05-08 05:21 37.82214 -122.47937 7716 ft 292 kts 65°
2026-05-08 05:21 37.83040 -122.45575 8315 ft 293 kts 65°
2026-05-08 05:22 37.83893 -122.43254 8781 ft 296 kts 58°
2026-05-08 05:22 37.85100 -122.41130 9240 ft 299 kts 49°
2026-05-08 05:22 37.86486 -122.39150 9776 ft 302 kts 46°
2026-05-08 05:22 37.87919 -122.37182 10280 ft 307 kts 46°
2026-05-08 05:23 37.89406 -122.35138 10446 ft 325 kts 46°
2026-05-08 05:23 37.90969 -122.32965 10592 ft 344 kts 47°
2026-05-08 05:23 37.92617 -122.30648 10738 ft 363 kts 47°
2026-05-08 05:23 37.94344 -122.28198 10922 ft 380 kts 47°
2026-05-08 05:24 37.96119 -122.25658 11333 ft 390 kts 47°
2026-05-08 05:24 37.97927 -122.23057 11896 ft 396 kts 48°
2026-05-08 05:24 37.99757 -122.20417 12592 ft 399 kts 48°
2026-05-08 05:24 38.01596 -122.17757 13307 ft 403 kts 48°
2026-05-08 05:25 38.03455 -122.15066 13973 ft 408 kts 48°
2026-05-08 05:25 38.05331 -122.12347 14559 ft 411 kts 48°
2026-05-08 05:25 38.07222 -122.09602 15205 ft 414 kts 48°
2026-05-08 05:25 38.09127 -122.06838 15857 ft 417 kts 48°
2026-05-08 05:26 38.11044 -122.04051 16468 ft 421 kts 48°
2026-05-08 05:26 38.12983 -122.01233 17094 ft 425 kts 48°
2026-05-08 05:26 38.14933 -121.98395 17726 ft 427 kts 48°
2026-05-08 05:26 38.16889 -121.95547 18380 ft 430 kts 48°
2026-05-08 05:27 38.18839 -121.92704 18909 ft 433 kts 48°
2026-05-08 05:27 38.20842 -121.89783 19448 ft 437 kts 48°
2026-05-08 05:27 38.22849 -121.86851 19972 ft 441 kts 48°
2026-05-08 05:27 38.24848 -121.83929 20483 ft 445 kts 48°
2026-05-08 05:28 38.26890 -121.80940 21019 ft 449 kts 48°
2026-05-08 05:28 38.28945 -121.77932 21546 ft 452 kts 48°
2026-05-08 05:28 38.31017 -121.74895 22053 ft 456 kts 48°
2026-05-08 05:28 38.33104 -121.71831 22545 ft 460 kts 48°
2026-05-08 05:29 38.35211 -121.68737 23024 ft 463 kts 48°
2026-05-08 05:29 38.37329 -121.65621 23523 ft 467 kts 48°
2026-05-08 05:29 38.39460 -121.62485 23959 ft 470 kts 48°
2026-05-08 05:29 38.41604 -121.59328 24385 ft 472 kts 48°
2026-05-08 05:30 38.43763 -121.56145 24819 ft 474 kts 48°
2026-05-08 05:30 38.45908 -121.52925 25232 ft 477 kts 50°
2026-05-08 05:30 38.47979 -121.49614 25671 ft 479 kts 52°
2026-05-08 05:30 38.50022 -121.46234 26106 ft 481 kts 52°
2026-05-08 05:31 38.52057 -121.42830 26524 ft 483 kts 52°
2026-05-08 05:31 38.54077 -121.39451 26910 ft 486 kts 52°
2026-05-08 05:31 38.56171 -121.35968 27283 ft 488 kts 52°
2026-05-08 05:31 38.58225 -121.32567 27643 ft 491 kts 52°
2026-05-08 05:32 38.60321 -121.29108 28011 ft 494 kts 52°
2026-05-08 05:32 38.62430 -121.25633 28358 ft 496 kts 52°
2026-05-08 05:32 38.64550 -121.22142 28698 ft 498 kts 52°
2026-05-08 05:32 38.66688 -121.18618 28969 ft 502 kts 52°
2026-05-08 05:33 38.68837 -121.15072 29251 ft 504 kts 52°
2026-05-08 05:33 38.70988 -121.11516 29597 ft 506 kts 52°
2026-05-08 05:33 38.73143 -121.07949 29915 ft 507 kts 52°
2026-05-08 05:33 38.75302 -121.04373 30283 ft 507 kts 52°
2026-05-08 05:34 38.77457 -121.00796 30652 ft 505 kts 52°
2026-05-08 05:34 38.79596 -120.97245 31035 ft 503 kts 52°
2026-05-08 05:34 38.81729 -120.93696 31430 ft 502 kts 52°
2026-05-08 05:34 38.83858 -120.90153 31740 ft 501 kts 52°
2026-05-08 05:35 38.85957 -120.86655 32040 ft 501 kts 52°
2026-05-08 05:35 38.88077 -120.83119 32345 ft 500 kts 52°
2026-05-08 05:35 38.90196 -120.79580 32662 ft 499 kts 52°
2026-05-08 05:35 38.92309 -120.76047 32960 ft 498 kts 52°
2026-05-08 05:36 38.94421 -120.72512 33067 ft 501 kts 52°
2026-05-08 05:36 38.98671 -120.65388 33103 ft 501 kts 52°
2026-05-08 05:37 39.02884 -120.58309 33160 ft 496 kts 52°
2026-05-08 05:37 39.07078 -120.51246 33170 ft 495 kts 52°
2026-05-08 05:38 39.11258 -120.44191 33173 ft 496 kts 52°
2026-05-08 05:38 39.15442 -120.37114 33211 ft 496 kts 52°
2026-05-08 05:39 39.19598 -120.30069 33243 ft 497 kts 52°
2026-05-08 05:39 39.23783 -120.22961 33281 ft 498 kts 52°
2026-05-08 05:40 39.27970 -120.15832 33298 ft 498 kts 52°
2026-05-08 05:40 39.32151 -120.08696 33299 ft 498 kts 52°
2026-05-08 05:41 39.36336 -120.01538 33278 ft 499 kts 52°
2026-05-08 05:41 39.38431 -119.97949 33156 ft 500 kts 52°
2026-05-08 05:41 39.40521 -119.94364 33167 ft 500 kts 52°
2026-05-08 05:42 39.44709 -119.87169 33180 ft 501 kts 52°
2026-05-08 05:42 39.48894 -119.79963 33194 ft 500 kts 52°
2026-05-08 05:43 39.53066 -119.72762 33176 ft 499 kts 52°
2026-05-08 05:43 39.57218 -119.65580 33172 ft 497 kts 52°
2026-05-08 05:44 39.61357 -119.58406 33134 ft 496 kts 52°
2026-05-08 05:44 39.65480 -119.51240 33094 ft 496 kts 52°
2026-05-08 05:45 39.69606 -119.44055 33050 ft 496 kts 52°
2026-05-08 05:45 39.73731 -119.36855 33035 ft 496 kts 52°
2026-05-08 05:46 39.77848 -119.29652 33016 ft 496 kts 52°
2026-05-08 05:46 39.81930 -119.22493 33016 ft 495 kts 52°
2026-05-08 05:47 39.86022 -119.15301 33007 ft 494 kts 52°
2026-05-08 05:47 39.90070 -119.08074 33000 ft 493 kts 54°
2026-05-08 05:48 39.93834 -119.00608 33000 ft 493 kts 56°
2026-05-08 05:48 39.97578 -118.93122 33024 ft 492 kts 55°
2026-05-08 05:49 40.01069 -118.85439 33034 ft 493 kts 59°
2026-05-08 05:49 40.04380 -118.77605 33056 ft 493 kts 59°
2026-05-08 05:50 40.07695 -118.69759 33078 ft 493 kts 59°
2026-05-08 05:50 40.11000 -118.61979 32989 ft 493 kts 59°
2026-05-08 05:51 40.14332 -118.54140 32994 ft 493 kts 59°
2026-05-08 05:51 40.17659 -118.46291 32981 ft 494 kts 59°
2026-05-08 05:52 40.20981 -118.38429 32984 ft 493 kts 59°
2026-05-08 05:52 40.24300 -118.30553 32980 ft 494 kts 59°
2026-05-08 05:53 40.27609 -118.22682 32983 ft 493 kts 59°
2026-05-08 05:53 40.30920 -118.14879 32976 ft 492 kts 56°
2026-05-08 05:54 40.34989 -118.07728 32974 ft 488 kts 45°
2026-05-08 05:54 40.39610 -118.01227 32979 ft 487 kts 44°
2026-05-08 05:55 40.44232 -117.94716 32981 ft 487 kts 44°
2026-05-08 05:55 40.48819 -117.88180 32983 ft 486 kts 45°
2026-05-08 05:56 40.53393 -117.81615 32989 ft 486 kts 45°
2026-05-08 05:56 40.57959 -117.75042 32979 ft 487 kts 45°
2026-05-08 05:57 40.62521 -117.68460 32970 ft 487 kts 45°
2026-05-08 05:57 40.67081 -117.61869 32977 ft 486 kts 45°
2026-05-08 05:58 40.71604 -117.55318 32974 ft 487 kts 45°
2026-05-08 05:58 40.76159 -117.48708 32970 ft 487 kts 45°
2026-05-08 05:59 40.80709 -117.42089 33004 ft 487 kts 45°
2026-05-08 05:59 40.84516 -117.36538 32993 ft 487 kts 45°
2026-05-08 06:00 40.89034 -117.29940 32979 ft 487 kts 45°
2026-05-08 06:00 40.93575 -117.23293 32982 ft 487 kts 45°
2026-05-08 06:01 40.98116 -117.16630 33000 ft 488 kts 45°
2026-05-08 06:01 41.02661 -117.09948 32989 ft 489 kts 44°
2026-05-08 06:02 41.07211 -117.03243 32981 ft 489 kts 44°
2026-05-08 06:02 41.11761 -116.96522 32979 ft 489 kts 45°
2026-05-08 06:03 41.16306 -116.89795 32988 ft 489 kts 45°
2026-05-08 06:03 41.20849 -116.83055 32986 ft 490 kts 44°
2026-05-08 06:04 41.25401 -116.76288 32980 ft 490 kts 44°
2026-05-08 06:04 41.29938 -116.69524 32986 ft 490 kts 44°
2026-05-08 06:05 41.34449 -116.62786 32988 ft 490 kts 44°
2026-05-08 06:05 41.38982 -116.55999 33010 ft 490 kts 44°
2026-05-08 06:06 41.43514 -116.49200 32998 ft 490 kts 44°
2026-05-08 06:06 41.48043 -116.42389 32998 ft 491 kts 44°
2026-05-08 06:07 41.52571 -116.35566 32994 ft 491 kts 44°
2026-05-08 06:07 41.57092 -116.28734 32995 ft 491 kts 44°
2026-05-08 06:08 41.61585 -116.21930 33009 ft 491 kts 44°
2026-05-08 06:08 41.66095 -116.15084 32996 ft 490 kts 44°
2026-05-08 06:09 41.70587 -116.08250 32995 ft 488 kts 44°
2026-05-08 06:09 41.75062 -116.01425 32996 ft 487 kts 45°
2026-05-08 06:10 41.79532 -115.94595 33008 ft 487 kts 45°
2026-05-08 06:10 41.83966 -115.87806 33003 ft 487 kts 45°
2026-05-08 06:11 41.88419 -115.80968 33001 ft 487 kts 45°
2026-05-08 06:11 41.92879 -115.74105 33000 ft 487 kts 45°
2026-05-08 06:12 41.97334 -115.67239 33001 ft 487 kts 45°
2026-05-08 06:12 42.01784 -115.60354 33009 ft 488 kts 45°
2026-05-08 06:13 42.06238 -115.53450 33008 ft 488 kts 44°
2026-05-08 06:13 42.10669 -115.46569 32993 ft 488 kts 44°
2026-05-08 06:14 42.15112 -115.39653 32993 ft 488 kts 45°
2026-05-08 06:14 42.19543 -115.32739 32995 ft 487 kts 44°
2026-05-08 06:15 42.23971 -115.25812 32989 ft 486 kts 44°
2026-05-08 06:15 42.28377 -115.18903 32984 ft 485 kts 44°
2026-05-08 06:16 42.32750 -115.12032 32973 ft 485 kts 44°
2026-05-08 06:16 42.37143 -115.05113 32968 ft 484 kts 44°
2026-05-08 06:17 42.43716 -114.94731 32964 ft 484 kts 44°
2026-05-08 06:17 42.48100 -114.87785 32989 ft 485 kts 44°
2026-05-08 06:18 42.52455 -114.80869 32989 ft 485 kts 44°
2026-05-08 06:18 42.56833 -114.73899 33000 ft 486 kts 44°
2026-05-08 06:19 42.61222 -114.66897 33015 ft 486 kts 44°
2026-05-08 06:19 42.65607 -114.59883 33035 ft 487 kts 44°
2026-05-08 06:20 42.69955 -114.52911 33038 ft 486 kts 44°
2026-05-08 06:20 42.74335 -114.45871 33037 ft 486 kts 44°
2026-05-08 06:21 42.78704 -114.38833 33054 ft 486 kts 44°
2026-05-08 06:21 42.83056 -114.31806 32960 ft 485 kts 44°
2026-05-08 06:22 42.87373 -114.24817 32943 ft 484 kts 44°
2026-05-08 06:22 42.91696 -114.17802 32941 ft 483 kts 44°
2026-05-08 06:23 42.96016 -114.10777 32933 ft 482 kts 44°
2026-05-08 06:23 43.00323 -114.03756 32907 ft 482 kts 44°
2026-05-08 06:24 43.04628 -113.96720 32913 ft 482 kts 44°
2026-05-08 06:24 43.08896 -113.89729 32928 ft 482 kts 44°
2026-05-08 06:25 43.13198 -113.82665 32897 ft 483 kts 44°
2026-05-08 06:25 43.17498 -113.75587 32891 ft 483 kts 44°
2026-05-08 06:26 43.21789 -113.68507 32892 ft 483 kts 44°
2026-05-08 06:26 43.26081 -113.61406 32896 ft 483 kts 44°
2026-05-08 06:27 43.30367 -113.54300 32876 ft 483 kts 44°
2026-05-08 06:27 43.34647 -113.47185 32883 ft 482 kts 44°
2026-05-08 06:28 43.38888 -113.40117 32881 ft 482 kts 44°
2026-05-08 06:28 43.43145 -113.33008 32871 ft 481 kts 44°
2026-05-08 06:29 43.47390 -113.25899 32873 ft 480 kts 44°
2026-05-08 06:29 43.51624 -113.18793 32874 ft 479 kts 44°
2026-05-08 06:30 43.55848 -113.11685 32901 ft 478 kts 43°
2026-05-08 06:30 43.60033 -113.04626 32896 ft 478 kts 43°
2026-05-08 06:31 43.64239 -112.97515 32886 ft 477 kts 44°
2026-05-08 06:31 43.68436 -112.90403 32891 ft 477 kts 44°
2026-05-08 06:32 43.72620 -112.83293 32905 ft 476 kts 43°
2026-05-08 06:32 43.76768 -112.76226 32903 ft 475 kts 43°
2026-05-08 06:33 43.80930 -112.69120 32902 ft 474 kts 43°
2026-05-08 06:33 43.85071 -112.62031 32905 ft 473 kts 43°
2026-05-08 06:34 43.89212 -112.54927 32907 ft 473 kts 43°
2026-05-08 06:34 43.93341 -112.47825 32907 ft 472 kts 43°
2026-05-08 06:35 43.97429 -112.40775 32915 ft 471 kts 43°
2026-05-08 06:35 44.01537 -112.33673 32920 ft 471 kts 43°
2026-05-08 06:36 44.05646 -112.26556 32920 ft 471 kts 43°
2026-05-08 06:36 44.09517 -112.19133 32927 ft 480 kts 51°
2026-05-08 06:37 44.12539 -112.10793 32926 ft 487 kts 56°
2026-05-08 06:37 44.15453 -112.02273 32962 ft 488 kts 56°
2026-05-08 06:38 44.18386 -111.93750 32939 ft 488 kts 56°
2026-05-08 06:38 44.21333 -111.85234 32936 ft 487 kts 56°
2026-05-08 06:39 44.24277 -111.76726 32942 ft 486 kts 56°
2026-05-08 06:39 44.26856 -111.69255 32945 ft 486 kts 56°
2026-05-08 06:40 44.29782 -111.60749 32960 ft 486 kts 56°
2026-05-08 06:40 44.32678 -111.52300 32957 ft 486 kts 56°
2026-05-08 06:41 44.35591 -111.43774 32972 ft 486 kts 56°
2026-05-08 06:41 44.38499 -111.35238 32986 ft 487 kts 56°
2026-05-08 06:42 44.41403 -111.26684 33022 ft 486 kts 56°
2026-05-08 06:42 44.44297 -111.18133 33048 ft 486 kts 56°
2026-05-08 06:43 44.47183 -111.09579 33122 ft 486 kts 56°
2026-05-08 06:43 44.50067 -111.01003 33092 ft 485 kts 56°
2026-05-08 06:44 44.52913 -110.92509 33074 ft 484 kts 56°
2026-05-08 06:44 44.55767 -110.83969 33073 ft 483 kts 56°
2026-05-08 06:45 44.58608 -110.75436 33098 ft 483 kts 56°
2026-05-08 06:45 44.61449 -110.66882 33055 ft 483 kts 56°
2026-05-08 06:46 44.64280 -110.58331 33023 ft 483 kts 56°
2026-05-08 06:46 44.67104 -110.49770 33053 ft 483 kts 56°
2026-05-08 06:47 44.69447 -110.42647 33066 ft 484 kts 56°
2026-05-08 06:47 44.72268 -110.34044 33049 ft 484 kts 56°
2026-05-08 06:48 44.75084 -110.25431 33038 ft 484 kts 56°
2026-05-08 06:48 44.77887 -110.16819 33041 ft 484 kts 56°
2026-05-08 06:49 44.80686 -110.08197 33062 ft 484 kts 56°
2026-05-08 06:49 44.83464 -109.99617 33052 ft 484 kts 56°
2026-05-08 06:50 44.86249 -109.90978 33027 ft 482 kts 56°
2026-05-08 06:50 44.89018 -109.82368 33044 ft 482 kts 56°
2026-05-08 06:51 44.91781 -109.73746 33057 ft 483 kts 55°
2026-05-08 06:51 44.94539 -109.65112 33047 ft 481 kts 55°
2026-05-08 06:52 44.97276 -109.56511 33044 ft 480 kts 55°
2026-05-08 06:52 44.99989 -109.47962 33045 ft 480 kts 55°
2026-05-08 06:53 45.02724 -109.39325 33037 ft 481 kts 55°
2026-05-08 06:53 45.05439 -109.30697 33041 ft 479 kts 55°
2026-05-08 06:54 45.08139 -109.22091 33019 ft 476 kts 55°
2026-05-08 06:54 45.10815 -109.13541 33035 ft 474 kts 55°
2026-05-08 06:55 45.13468 -109.05050 33041 ft 474 kts 55°
2026-05-08 06:55 45.16137 -108.96480 33046 ft 476 kts 55°
2026-05-08 06:56 45.18806 -108.87878 33042 ft 478 kts 55°
2026-05-08 06:56 45.21480 -108.79221 33091 ft 479 kts 55°
2026-05-08 06:57 45.24155 -108.70534 33039 ft 481 kts 55°
2026-05-08 06:57 45.26822 -108.61831 33028 ft 480 kts 55°
2026-05-08 06:58 45.29476 -108.53146 33025 ft 479 kts 55°
2026-05-08 06:58 45.32122 -108.44457 33098 ft 479 kts 56°
2026-05-08 06:59 45.34753 -108.35804 33025 ft 480 kts 56°
2026-05-08 06:59 45.37398 -108.27070 33018 ft 480 kts 56°
2026-05-08 07:00 45.40031 -108.18340 33016 ft 480 kts 56°
2026-05-08 07:00 45.42665 -108.09586 33062 ft 482 kts 57°
2026-05-08 07:01 45.45303 -108.00782 33009 ft 484 kts 58°
2026-05-08 07:01 45.47925 -107.91993 33010 ft 485 kts 58°
2026-05-08 07:02 45.50559 -107.83135 32991 ft 485 kts 58°
2026-05-08 07:02 45.53188 -107.74262 33018 ft 486 kts 59°
2026-05-08 07:03 45.55819 -107.65353 33019 ft 487 kts 59°
2026-05-08 07:03 45.58435 -107.56462 33014 ft 488 kts 59°
2026-05-08 07:04 45.61059 -107.47513 33017 ft 488 kts 59°
2026-05-08 07:04 45.63678 -107.38547 33014 ft 489 kts 60°
2026-05-08 07:05 45.66271 -107.29638 33007 ft 488 kts 60°
2026-05-08 07:05 45.68872 -107.20672 32996 ft 488 kts 60°
2026-05-08 07:06 45.71463 -107.11706 33002 ft 487 kts 60°
2026-05-08 07:06 45.74050 -107.02724 33002 ft 488 kts 62°
2026-05-08 07:07 45.76628 -106.93740 32990 ft 488 kts 62°
2026-05-08 07:07 45.79198 -106.84750 32977 ft 488 kts 62°
2026-05-08 07:08 45.81762 -106.75747 32980 ft 487 kts 62°
2026-05-08 07:08 45.84303 -106.66791 32970 ft 488 kts 62°
2026-05-08 07:09 45.86857 -106.57759 32957 ft 489 kts 62°
2026-05-08 07:09 45.89408 -106.48704 32949 ft 489 kts 62°
2026-05-08 07:10 45.91949 -106.39647 32952 ft 489 kts 62°
2026-05-08 07:10 45.94484 -106.30581 32946 ft 489 kts 63°
2026-05-08 07:11 45.97013 -106.21503 32941 ft 489 kts 63°
2026-05-08 07:11 45.99535 -106.12415 32932 ft 489 kts 63°
2026-05-08 07:12 46.02035 -106.03371 32939 ft 489 kts 63°
2026-05-08 07:12 46.04542 -105.94270 32925 ft 489 kts 63°
2026-05-08 07:13 46.07044 -105.85151 32925 ft 490 kts 63°
2026-05-08 07:13 46.09543 -105.76006 32926 ft 490 kts 63°
2026-05-08 07:14 46.12032 -105.66864 32921 ft 490 kts 63°
2026-05-08 07:14 46.14498 -105.57776 32914 ft 490 kts 63°
2026-05-08 07:15 46.16972 -105.48617 32918 ft 490 kts 63°
2026-05-08 07:15 46.19442 -105.39442 32917 ft 490 kts 63°
2026-05-08 07:16 46.21901 -105.30268 32946 ft 490 kts 63°
2026-05-08 07:16 46.24362 -105.21056 32918 ft 491 kts 63°
2026-05-08 07:17 46.26798 -105.11901 32919 ft 490 kts 63°
2026-05-08 07:17 46.29241 -105.02680 32917 ft 490 kts 63°
2026-05-08 07:18 46.31675 -104.93461 32933 ft 491 kts 63°
2026-05-08 07:18 46.34103 -104.84227 32918 ft 491 kts 63°
2026-05-08 07:19 46.36528 -104.74969 32919 ft 492 kts 63°
2026-05-08 07:19 46.38929 -104.65762 32904 ft 492 kts 63°
2026-05-08 07:20 46.41346 -104.56463 32922 ft 493 kts 63°
2026-05-08 07:20 46.43757 -104.47146 32915 ft 493 kts 63°
2026-05-08 07:21 46.46162 -104.37813 32910 ft 494 kts 63°
2026-05-08 07:21 46.48561 -104.28468 32904 ft 494 kts 64°
2026-05-08 07:22 46.50947 -104.19133 32928 ft 494 kts 64°
2026-05-08 07:22 46.53332 -104.09765 32907 ft 494 kts 64°
2026-05-08 07:23 46.55689 -104.00470 32897 ft 493 kts 64°
2026-05-08 07:23 46.58050 -103.91120 32900 ft 492 kts 64°
2026-05-08 07:24 46.60404 -103.81763 32911 ft 492 kts 64°
2026-05-08 07:24 46.62748 -103.72405 32909 ft 492 kts 64°
2026-05-08 07:25 46.65088 -103.63027 32899 ft 493 kts 64°
2026-05-08 07:26 46.68570 -103.48994 32935 ft 493 kts 64°
2026-05-08 07:26 46.70898 -103.39567 32897 ft 495 kts 64°
2026-05-08 07:27 46.73224 -103.30105 32887 ft 496 kts 64°
2026-05-08 07:27 46.75544 -103.20625 32875 ft 496 kts 64°
2026-05-08 07:28 46.77855 -103.11145 32902 ft 496 kts 64°
2026-05-08 07:28 46.80161 -103.01643 32863 ft 497 kts 64°
2026-05-08 07:29 46.82461 -102.92127 32860 ft 497 kts 64°
2026-05-08 07:29 46.84752 -102.82609 32861 ft 497 kts 65°
2026-05-08 07:30 46.87004 -102.73120 32902 ft 497 kts 65°
2026-05-08 07:30 46.89160 -102.63482 32870 ft 499 kts 66°
2026-05-08 07:31 46.91282 -102.53822 32874 ft 498 kts 66°
2026-05-08 07:31 46.93406 -102.44181 32866 ft 497 kts 66°
2026-05-08 07:32 46.95526 -102.34564 32906 ft 496 kts 66°
2026-05-08 07:32 46.97643 -102.24938 32876 ft 496 kts 66°
2026-05-08 07:33 46.99752 -102.15298 32868 ft 497 kts 66°
2026-05-08 07:33 47.01854 -102.05642 32868 ft 498 kts 66°
2026-05-08 07:34 47.03939 -101.96017 32870 ft 498 kts 66°
2026-05-08 07:34 47.06029 -101.86327 32877 ft 499 kts 66°
2026-05-08 07:35 47.08114 -101.76611 32869 ft 499 kts 66°
2026-05-08 07:35 47.09854 -101.68465 32874 ft 499 kts 66°
2026-05-08 07:36 47.11910 -101.58803 32908 ft 499 kts 66°
2026-05-08 07:36 47.13977 -101.49046 32879 ft 501 kts 66°
2026-05-08 07:37 47.16037 -101.39268 32871 ft 501 kts 66°
2026-05-08 07:37 47.18093 -101.29461 32876 ft 501 kts 67°
2026-05-08 07:38 47.20139 -101.19658 32913 ft 502 kts 67°
2026-05-08 07:38 47.22181 -101.09827 32886 ft 503 kts 67°
2026-05-08 07:39 47.24206 -101.00030 32881 ft 503 kts 67°
2026-05-08 07:39 47.26235 -100.90161 32881 ft 504 kts 67°
2026-05-08 07:40 47.28263 -100.80255 32901 ft 504 kts 68°
2026-05-08 07:40 47.30278 -100.70360 32899 ft 505 kts 68°
2026-05-08 07:41 47.32277 -100.60491 32875 ft 505 kts 68°
2026-05-08 07:41 47.34281 -100.50550 32872 ft 505 kts 68°
2026-05-08 07:42 47.36276 -100.40601 32899 ft 505 kts 68°
2026-05-08 07:42 47.38266 -100.30633 32877 ft 506 kts 68°
2026-05-08 07:43 47.40235 -100.20717 32876 ft 507 kts 68°
2026-05-08 07:43 47.42208 -100.10728 32878 ft 507 kts 69°
2026-05-08 07:44 47.44176 -100.00713 32893 ft 507 kts 69°
2026-05-08 07:44 47.46135 -99.90694 32870 ft 508 kts 69°
2026-05-08 07:45 47.48085 -99.80667 32863 ft 508 kts 69°
2026-05-08 07:45 47.50018 -99.70672 32874 ft 508 kts 69°
2026-05-08 07:46 47.51967 -99.60547 32884 ft 509 kts 70°
2026-05-08 07:46 47.53885 -99.50533 32873 ft 509 kts 70°
2026-05-08 07:47 47.55807 -99.40435 32871 ft 509 kts 70°
2026-05-08 07:47 47.57721 -99.30330 32868 ft 509 kts 70°
2026-05-08 07:48 47.59625 -99.20225 32884 ft 509 kts 70°
2026-05-08 07:48 47.61525 -99.10086 32864 ft 510 kts 70°
2026-05-08 07:49 47.63413 -98.99951 32859 ft 510 kts 70°
2026-05-08 07:49 47.65293 -98.89809 32864 ft 510 kts 70°
2026-05-08 07:50 47.67165 -98.79652 32880 ft 510 kts 71°
2026-05-08 07:50 47.69017 -98.69552 32855 ft 511 kts 71°
2026-05-08 07:51 47.70875 -98.59358 32864 ft 511 kts 71°
2026-05-08 07:51 47.72721 -98.49173 32862 ft 510 kts 71°
2026-05-08 07:52 47.74557 -98.38990 32878 ft 510 kts 71°
2026-05-08 07:52 47.76385 -98.28794 32865 ft 510 kts 71°
2026-05-08 07:53 47.78192 -98.18655 32862 ft 510 kts 71°
2026-05-08 07:53 47.79999 -98.08464 32860 ft 510 kts 71°
2026-05-08 07:54 47.81798 -97.98252 32857 ft 510 kts 72°
2026-05-08 07:54 47.83587 -97.88042 32858 ft 510 kts 72°
2026-05-08 07:55 47.85372 -97.77799 32859 ft 510 kts 72°
2026-05-08 07:55 47.87135 -97.67618 32857 ft 510 kts 72°
2026-05-08 07:56 47.88899 -97.57376 32866 ft 511 kts 72°
2026-05-08 07:56 47.90656 -97.47113 32818 ft 511 kts 72°
2026-05-08 07:57 47.92407 -97.36829 32817 ft 512 kts 72°
2026-05-08 07:57 47.94155 -97.26545 32837 ft 511 kts 71°
2026-05-08 07:58 47.96789 -97.16799 32844 ft 504 kts 57°
2026-05-08 07:58 48.00640 -97.08147 32854 ft 498 kts 48°
2026-05-08 07:59 48.04909 -96.99950 32837 ft 500 kts 47°
2026-05-08 07:59 48.09171 -96.91713 32837 ft 501 kts 48°
2026-05-08 08:00 48.13378 -96.83468 32861 ft 501 kts 48°
2026-05-08 08:00 48.17592 -96.75143 32846 ft 502 kts 48°
2026-05-08 08:01 48.21805 -96.66792 32838 ft 502 kts 48°
2026-05-08 08:01 48.26018 -96.58417 32851 ft 502 kts 49°
2026-05-08 08:02 48.30219 -96.50042 32834 ft 501 kts 49°
2026-05-08 08:02 48.34390 -96.41704 32847 ft 501 kts 49°
2026-05-08 08:03 48.38570 -96.33324 32835 ft 500 kts 49°
2026-05-08 08:03 48.42740 -96.24935 32833 ft 499 kts 49°
2026-05-08 08:04 48.46895 -96.16552 32832 ft 499 kts 49°
2026-05-08 08:04 48.51046 -96.08151 32841 ft 499 kts 49°
2026-05-08 08:05 48.55164 -95.99789 32826 ft 499 kts 49°
2026-05-08 08:05 48.59301 -95.91364 32814 ft 499 kts 49°
2026-05-08 08:06 48.63430 -95.82928 32815 ft 499 kts 49°
2026-05-08 08:06 48.67547 -95.74491 32806 ft 499 kts 49°
2026-05-08 08:07 48.71660 -95.66035 32818 ft 499 kts 50°
2026-05-08 08:07 48.75770 -95.57559 32824 ft 500 kts 50°
2026-05-08 08:08 48.79885 -95.49047 32814 ft 500 kts 50°
2026-05-08 08:08 48.83970 -95.40569 32814 ft 501 kts 50°
2026-05-08 08:09 48.88077 -95.32017 32806 ft 501 kts 50°
2026-05-08 08:09 48.92181 -95.23444 32821 ft 501 kts 50°
2026-05-08 08:10 48.96281 -95.14854 32815 ft 501 kts 50°
2026-05-08 08:10 49.00375 -95.06247 32818 ft 501 kts 50°
2026-05-08 08:11 49.04423 -94.97710 32818 ft 500 kts 50°
2026-05-08 08:11 49.08489 -94.89109 32827 ft 499 kts 50°
2026-05-08 08:12 49.12545 -94.80500 32835 ft 498 kts 50°
2026-05-08 08:12 49.16587 -94.71895 32834 ft 498 kts 50°
2026-05-08 08:13 49.20596 -94.63332 32833 ft 498 kts 51°
2026-05-08 08:13 49.24650 -94.54644 32842 ft 498 kts 51°
2026-05-08 08:14 49.28668 -94.46007 32833 ft 498 kts 51°
2026-05-08 08:14 49.32654 -94.37409 32825 ft 498 kts 51°
2026-05-08 08:15 49.36662 -94.28735 32828 ft 498 kts 51°
2026-05-08 08:15 49.40662 -94.20051 32834 ft 498 kts 51°
2026-05-08 08:16 49.44658 -94.11350 32829 ft 498 kts 51°
2026-05-08 08:16 49.48509 -94.02485 32815 ft 502 kts 57°
2026-05-08 08:17 49.51664 -93.92887 32823 ft 502 kts 60°
2026-05-08 08:17 49.54738 -93.83218 32816 ft 502 kts 60°
2026-05-08 08:18 49.57807 -93.73625 32816 ft 502 kts 60°
2026-05-08 08:18 49.60912 -93.63978 32816 ft 502 kts 60°
2026-05-08 08:19 49.64017 -93.54327 32830 ft 503 kts 59°
2026-05-08 08:19 49.67122 -93.44637 32824 ft 503 kts 59°
2026-05-08 08:20 49.70218 -93.34930 32838 ft 503 kts 59°
2026-05-08 08:20 49.73308 -93.25204 32823 ft 504 kts 59°
2026-05-08 08:21 49.76371 -93.15524 32852 ft 504 kts 59°
2026-05-08 08:21 49.79445 -93.05768 32835 ft 505 kts 59°
2026-05-08 08:22 49.82518 -92.95980 32831 ft 505 kts 59°
2026-05-08 08:22 49.85069 -92.87825 32835 ft 506 kts 59°
2026-05-08 08:23 49.88133 -92.77991 32770 ft 506 kts 60°
2026-05-08 08:23 49.91192 -92.68136 32777 ft 507 kts 59°
2026-05-08 08:24 49.94247 -92.58256 32870 ft 508 kts 60°
2026-05-08 08:24 49.97279 -92.48409 32849 ft 508 kts 60°
2026-05-08 08:25 50.00323 -92.38482 32829 ft 508 kts 60°
2026-05-08 08:25 50.03354 -92.28558 32814 ft 508 kts 60°
2026-05-08 08:26 50.06376 -92.18624 32792 ft 508 kts 60°
2026-05-08 08:26 50.09386 -92.08689 32776 ft 507 kts 60°
2026-05-08 08:27 50.12374 -91.98788 32770 ft 507 kts 60°
2026-05-08 08:27 50.15366 -91.88831 32768 ft 507 kts 60°